Notices

What's New in latest Release from April 7th, 2021:

- Updated Glossary, including Speed of Maximum Gust, and Total Hourly Precipitation

- Updated national and regional climate services offices contacts and prices information

- Addition of station inventory lists for 1981-2010, 1971-2000, and 1961-1990 Normals.

If you haven't already, please take our survey and provide feedback about our website: https://eccc.sondage-survey.ca/f/LanguageSelection.aspx?s=442ca660-fcf1-47c0-95a9-59707d6fd709

Hourly Data Report for May 05, 2021

CARBERRY CS
MANITOBA
Current Station Operator: ECCC - MSC

49°54'20.900" N
99°21'26.800" W
383.50 m
5010547
71170
WZE

Download Data

Hourly Data (May 2021)
Hourly Data Report for May 5, 2021
TIME
LST
Temp Definition
°C
Dew Point Definition
°C
Rel Hum Definition
%
Precip. Amount Definition
mm

Wind Dir Definition
10's deg

Wind Spd Definition
km/h
Visibility Definition
km
Stn Press Definition
kPa
Hmdx Definition


Wind Chill Definition


Weather Definition


00:00 -1.7 -8.2 61 0.0 4 4   97.51   -3 LegendNANA
01:00 -3.0 -8.0 69 0.0 3 5   97.53   -5 LegendNANA
02:00 -2.3 -8.1 64 0.0 3 5   97.57   -4 LegendNANA
03:00 -3.3 -8.2 69 0.0 4 7   97.58   -6 LegendNANA
04:00 -4.3 -8.0 75 0.0 7 7   97.59   -7 LegendNANA
05:00 -4.1 -7.8 75 0.0 6 8   97.61   -8 LegendNANA
06:00 -4.2 -7.5 78 0.0 2 5   97.68   -6 LegendNANA
07:00 0.6 -5.0 66 0.0 6 9   97.71     LegendNANA
08:00 3.3 -6.8 47 0.0 7 15   97.74     LegendNANA
09:00 4.7 -6.5 44 0.0 6 13   97.75     LegendNANA
10:00 6.1 -5.6 43 0.0 5 11   97.75     LegendNANA
11:00 6.9 -5.7 40 0.0 10 9   97.74     LegendNANA
12:00 7.7 -6.9 35 0.0 4 10   97.73     LegendNANA
13:00 9.6 -6.8 31 0.0 2 15   97.70     LegendNANA
14:00 9.9 -7.6 28 0.0 33 9   97.66     LegendNANA
15:00 9.8 -7.8 28 0.0 1 11   97.64     LegendNANA
16:00 10.1 -7.5 28 0.0 36 7   97.63     LegendNANA
17:00 10.7 -8.1 26 0.0 2 10   97.64     LegendNANA
18:00 10.9 -8.9 24 0.0 36 12   97.63     LegendNANA
19:00 10.2 -9.6 24 0.0 34 6   97.61     LegendNANA
20:00 6.8 -7.2 36 0.0 12 14   97.59     LegendNANA
21:00 3.5 -7.7 43 0.0 13 7   97.62     LegendNANA
22:00 3.7 -7.1 45 0.0 15 10   97.63     LegendNANA
23:00 2.4 -6.8 50 0.0 19 10   97.61     LegendNANA

Notes on Data Quality.

Legend

  • E = Estimated
  • M = Missing
  • NA = Not Available*
  • [empty] = Indicates an unobserved value
Date modified: